SCP
0 0 0 0 0 0 0 0 0 0 0 0 0 0 0 0 0 1 1 0 0 0
0 0 0 0 0 0 0 0 0 0 0 0 0 0 0 0 0 0 0 0 0 0
-0 -0 -0 0 0 0 0 0 0 0 0 0 0 0 0 0 0 0 1 0 0 0
0 0 0 0 0 0 0 0 0 0 0 0 0 0 -0 -0 0 0 0 0 0 0
0 0 0 0 0 0 0 0 0 0 0 0 0 0 0 0 0 0 0 0 0 0
0 0 0 0 0 0 0 0 0 0 0 0 0 0 0 0 0 0 0 0 0 0
0 0 0 0 0 0 0 0 0 0 0 0 0 0 0 0 0 0 0 0 0 0
-0 0 0 0 0 0 0 0 0 0 0 0 0 0 0 0 0 0 0 0 0 0
-0 -0 0 0 0 0 0 0 0 0 0 0 0 0 0 0 0 0 0 0 0 0
-0 0 0 0 0 0 0 0 0 0 0 0 0 0 0 0 0 0 0 0 0 0
-0 -0 0 0 0 0 0 0 0 0 0 0 0 0 0 0 0 0 0 0 0 0
0 0 0 -0 -0 0 0 0 0 0 0 0 -0 -0 0 -0 0 0 0 0 0 0
0 0 0 0 0 0 -0 -0 -0 0 0 0 0 -0 0 0 0 0 0 0 0 0
0 0 0 0 0 0 0 0 0 -0 0 -0 0 0 0 0 0 0 0 0 0 0
Wind_Speed_500mb
40 42 36 26 41 40 45 39 42 47 43 47 50 50 42 47 71 75 77 76 88 91
36 30 29 15 22 34 38 42 45 39 38 45 48 58 52 52 56 67 73 87 89 98
36 30 21 18 20 26 35 34 37 38 45 45 45 42 62 58 57 57 66 78 83 98
32 28 20 19 17 26 21 29 35 38 35 34 38 33 43 58 57 61 60 71 85 92
29 24 19 16 22 27 24 23 21 23 27 29 32 32 34 43 50 58 62 67 78 82
28 23 17 13 12 14 15 17 16 18 25 27 30 30 34 40 46 49 61 69 82 93
23 17 13 8 5 5 7 11 18 20 19 24 25 30 31 40 40 39 54 70 102 99
15 15 12 7 4 5 8 10 15 17 18 20 32 37 31 40 33 33 47 56 92 74
13 11 6 3 1 4 7 5 9 11 14 19 20 31 34 31 25 37 45 49 57 55
18 13 11 9 9 10 7 4 5 5 4 2 10 25 24 27 37 33 41 41 46 64
26 24 22 18 16 15 14 15 16 16 12 10 16 10 25 40 48 49 44 41 49 55
27 31 32 33 31 30 29 34 41 44 47 50 50 46 50 56 62 65 54 45 52 54
34 35 38 41 43 45 49 54 54 58 61 62 64 61 52 48 54 49 47 54 50 42
42 45 44 45 48 50 52 54 55 56 57 59 59 51 43 40 43 41 43 49 42 44
Wind_Direction_500mb
293 285 290 275 252 254 246 224 224 221 227 234 234 238 237 234 231 237 234 219 233 232
295 282 290 278 212 222 223 216 214 220 226 239 241 237 241 242 235 233 235 231 231 232
297 297 292 278 238 207 206 203 217 225 233 241 244 251 242 242 236 237 235 235 226 227
302 302 294 279 253 252 219 216 228 236 237 240 244 258 252 247 244 241 243 247 225 228
312 310 301 296 265 248 236 232 240 241 248 249 253 259 266 258 256 255 245 248 239 226
316 306 288 260 254 249 243 241 244 247 244 253 258 269 273 265 256 254 251 252 231 217
319 316 303 283 241 236 260 268 248 242 251 255 269 275 284 271 255 259 253 248 226 221
342 334 324 305 280 254 236 266 251 244 253 269 264 271 280 267 249 261 243 247 216 221
17 6 357 20 325 255 216 261 296 281 255 259 261 268 274 251 220 203 185 182 172 172
47 57 81 104 133 133 140 228 194 205 222 211 267 267 261 202 171 171 166 148 145 155
66 75 83 93 101 105 113 121 118 107 107 114 113 187 165 163 158 153 137 138 125 115
77 86 92 95 98 101 112 106 102 104 104 104 101 105 113 125 126 116 111 109 110 104
78 86 95 102 106 110 108 105 104 99 94 89 84 80 84 93 100 105 107 103 100 113
80 86 91 97 102 103 104 106 104 100 97 93 92 93 94 101 107 114 113 109 113 104
Wind_Speed_850mb
40 42 36 26 41 40 45 39 42 47 43 47 50 50 42 47 71 75 77 76 88 91
36 30 29 15 22 34 38 42 45 39 38 45 48 58 52 52 56 67 73 87 89 98
36 30 21 18 20 26 35 34 37 38 45 45 45 42 62 58 57 57 66 78 83 98
32 28 20 19 17 26 21 29 35 38 35 34 38 33 43 58 57 61 60 71 85 92
29 24 19 16 22 27 24 23 21 23 27 29 32 32 34 43 50 58 62 67 78 82
28 23 17 13 12 14 15 17 16 18 25 27 30 30 34 40 46 49 61 69 82 93
23 17 13 8 5 5 7 11 18 20 19 24 25 30 31 40 40 39 54 70 102 99
15 15 12 7 4 5 8 10 15 17 18 20 32 37 31 40 33 33 47 56 92 74
13 11 6 3 1 4 7 5 9 11 14 19 20 31 34 31 25 37 45 49 57 55
18 13 11 9 9 10 7 4 5 5 4 2 10 25 24 27 37 33 41 41 46 64
26 24 22 18 16 15 14 15 16 16 12 10 16 10 25 40 48 49 44 41 49 55
27 31 32 33 31 30 29 34 41 44 47 50 50 46 50 56 62 65 54 45 52 54
34 35 38 41 43 45 49 54 54 58 61 62 64 61 52 48 54 49 47 54 50 42
42 45 44 45 48 50 52 54 55 56 57 59 59 51 43 40 43 41 43 49 42 44
Wind_Direction_850mb
293 285 290 275 252 254 246 224 224 221 227 234 234 238 237 234 231 237 234 219 233 232
295 282 290 278 212 222 223 216 214 220 226 239 241 237 241 242 235 233 235 231 231 232
297 297 292 278 238 207 206 203 217 225 233 241 244 251 242 242 236 237 235 235 226 227
302 302 294 279 253 252 219 216 228 236 237 240 244 258 252 247 244 241 243 247 225 228
312 310 301 296 265 248 236 232 240 241 248 249 253 259 266 258 256 255 245 248 239 226
316 306 288 260 254 249 243 241 244 247 244 253 258 269 273 265 256 254 251 252 231 217
319 316 303 283 241 236 260 268 248 242 251 255 269 275 284 271 255 259 253 248 226 221
342 334 324 305 280 254 236 266 251 244 253 269 264 271 280 267 249 261 243 247 216 221
17 6 357 20 325 255 216 261 296 281 255 259 261 268 274 251 220 203 185 182 172 172
47 57 81 104 133 133 140 228 194 205 222 211 267 267 261 202 171 171 166 148 145 155
66 75 83 93 101 105 113 121 118 107 107 114 113 187 165 163 158 153 137 138 125 115
77 86 92 95 98 101 112 106 102 104 104 104 101 105 113 125 126 116 111 109 110 104
78 86 95 102 106 110 108 105 104 99 94 89 84 80 84 93 100 105 107 103 100 113
80 86 91 97 102 103 104 106 104 100 97 93 92 93 94 101 107 114 113 109 113 104